Regional Weather Roundup
Issued by NWS New Orleans/Baton Rouge, LA

Home | Current Version | Previous Version | Text Only | Print | Product List | Glossary On
Versions: 1 2 3 4 5 6 7 8 9 10 11 12 13 14 15 16 17 18 19 20 21 22 23 24 25 26 27 28 29 30 31 32 33 34 35 36 37 38 39 40 41 42 43 44 45 46 47 48 49 50
898
ASUS44 KLIX 300101
RWRLIX
NEW ORLEANS REGIONAL WEATHER ROUNDUP
NATIONAL WEATHER SERVICE NEW ORLEANS LA
800 PM CDT WED OCT 29 2014

NOTE: "FAIR" INDICATES FEW OR NO CLOUDS BELOW 12,000 FEET WITH NO
      SIGNIFICANT WEATHER AND/OR OBSTRUCTIONS TO VISIBILITY.
      SKY/WX - SKY CONDITION AND SIGNIFICANT WEATHER.
      TMP - AIR TEMPERATURE.     DP    - DEWPOINT TEMPERATURE.
      RH  - RELATIVE HUMIDITY.   PRES  - PRESSURE.
      HI  - HEAT INDEX.          WCI   - WIND CHILL INDEX.

*  THESE STATIONS ARE NOT NWS OR FAA STATIONS AND ARE NOT UNDER
   NWS QUALITY CONTROL.

LAZ038-040-048-061>063-065>067-069-300200-
SOUTHEAST LOUISIANA

CITY           SKY/WX    TMP DP  RH WIND       PRES   REMARKS
N.O. AUDUBON     N/A     76  71  83 MISG        N/A
N.O. INTL ARPT CLOUDY    75  67  76 N13       30.04R
N.O. LAKEFRONT CLOUDY    76  70  82 N13       30.04R
N.O. DOWNTOWN* CLOUDY    77  64  65 N6        30.05R
SLIDELL        CLOUDY    73  65  75 N10G20    30.04R
BATON ROUGE    CLEAR     67  62  84 CALM      30.08R
BOOTHVILLE     PTCLDY    74  68  81 CALM      30.03R
BELLE CHASSE   MOCLDY    77  64  64 N6        30.03R
BOGALUSA*        N/A     69  63  81 N5        30.08R
NEW ROADS*       N/A     64  61  91 N3        30.09R
GONZALES*        N/A     71  67  89 N5        30.06R
HAMMOND*       NOT AVBL
HOUMA*         PTCLDY    73  67  80 N8        30.04R
PORT FOURCHON* CLOUDY    77  72  83 CALM      30.07R

$$

MSZ070-080>082-300200-
SOUTHERN MISSISSIPPI

CITY           SKY/WX    TMP DP  RH WIND       PRES   REMARKS
MCCOMB         CLEAR     67  49  52 N8        30.09R
GULFPORT       PTCLDY    73  66  78 N8        30.03R
BILOXI         PTCLDY    71  68  91 NE8       30.03R
PASCAGOULA     MOCLDY    71  65  81 N8        30.03R
STENNIS ARPT*  MOCLDY    73  63  68 N5        30.04R

$$

COASTAL OBSERVATIONS
LAKE AND NEARSHORE STATIONS

STATION/POSITION TIME  TEMP    WIND        PRES    WAVE
                       AIR SEA DIR/SP/G            HT/PER
                 (UTC) (F)     (DEG/KT/KT) (MB)    (FT/S)
PASCAGOULA       0000   73     360/  7/ 10 1016.3
WAVELAND YACHT   0000   75      10/ 10/ 13 1016.3
GRAND ISLE       0000   77 79  250/  5/  6 1017.3
SOUTHWEST PASS   0000   75 78              1017.1
NEW CANAL        0000   75 73  360/  8/  9 1017.4
SHELL BEACH      0000   76 72  340/  8/ 10 1016.5

OFFSHORE STATIONS

STATION/POSITION TIME  TEMP    WIND        PRES    WAVE
                       AIR SEA DIR/SP/G            HT/PER
                 (UTC) (F)     (DEG/KT/KT) (MB)    (FT/S)
64 S DAUPHIN ISL 0033   75 79  300/  2/  4 1017.3    2/ 6

$$




USA.gov is the U.S. government's official web portal to all federal, state and local government web resources and services.